Regional Weather Roundup
Issued by NWS

Home | Current Version | Previous Version | Graphics & Text | Print | Product List | Glossary On
Versions: 1 2 3 4 5 6 7 8 9 10 11 12 13 14 15 16 17 18 19 20 21 22 23 24 25 26 27 28 29 30 31 32 33 34 35 36 37 38 39 40 41 42 43 44 45 46 47 48 49 50
028
ASUS44 KLIX 010510
RWRLA
LOUISIANA WEATHER ROUNDUP
NATIONAL WEATHER SERVICE NEW ORLEANS LA
1200 AM CDT MON SEP 01 2014

NOTE: "FAIR" INDICATES FEW OR NO CLOUDS BELOW 12,000 FEET WITH NO
      SIGNIFICANT WEATHER AND/OR OBSTRUCTIONS TO VISIBILITY.
      SKY/WX - SKY CONDITION AND SIGNIFICANT WEATHER.
      TMP - AIR TEMPERATURE.    DP   - DEWPOINT TEMPERATURE.
      RH  - RELATIVE HUMIDITY.  PRES - PRESSURE.
      HX  - HEAT INDEX.         WCI  - WIND CHILL INDEX.

*  THESE STATIONS ARE NOT NWS OR FAA STATIONS AND ARE NOT UNDER
   NWS QUALITY CONTROL.

LAZ040-048-061>063-065-066-069-010600-
SOUTHEAST LOUISIANA

CITY           SKY/WX    TMP DP  RH WIND       PRES   REMARKS
N.O. AUDUBON     N/A     84  78  83 MISG        N/A  HX  95
N.O. INTL ARPT MOCLDY    82  75  79 SE10      30.03F
N.O. LAKEFRONT PTCLDY    82  77  84 SE8       30.05F
N.O. DOWNTOWN* FAIR      82  73  74 SE3       30.05S
SLIDELL        PTCLDY    80  75  84 SE6       30.04F
BATON ROUGE    CLEAR     79  74  84 E5        30.03S
BOOTHVILLE     CLEAR     83  78  85 SE7       30.05F
BELLE CHASSE   PTCLDY    83  75  77 SE6       30.04S
BOGALUSA*        N/A     78  74  87 CALM      30.06F
GALLIANO*      NOT AVBL
NEW ROADS*     FAIR      78  75  91 CALM      30.02F
GONZALES*      FAIR      80  79  99 SE3       30.02F
HAMMOND*       PTCLDY    77  73  88 CALM      30.05F
HOUMA*         PTCLDY    80  75  85 E5        30.03S
PORT FOURCHON* NOT AVBL

$$

LAZ041-044-053-054-010600-
SOUTHWEST LOUISIANA

CITY           SKY/WX    TMP DP  RH WIND       PRES   REMARKS
LAKE CHARLES   PTCLDY    79  77  94 SE6       29.99F
LAFAYETTE      CLEAR     79  76  90 SE3       30.01F
PATTERSON        N/A     81  77  89 SE5       30.04S
SALT POINT       N/A     86  79  79 SE10G18   30.00F HX  99
NEW IBERIA     PTCLDY    80  76  87 SE7       30.01F
CHENAULT AIRPK PTCLDY    78  76  95 CALM      30.00F

$$

LAZ027-028-010600-
CENTRAL LOUISIANA

CITY           SKY/WX    TMP DP  RH WIND       PRES   REMARKS
FORT POLK      PTCLDY    75  73  93 SE3       30.01S
ALEXANDRIA INT PTCLDY    75  73  93 S5        29.99S
ALEXANDRIA     PTCLDY    75  72  90 CALM      30.01S

$$

LAZ001-002-010600-
NORTHWEST LOUISIANA

CITY           SKY/WX    TMP DP  RH WIND       PRES   REMARKS
SHREVEPORT     PTCLDY    76  72  87 S6        29.97S
BARKSDALE AFB  CLEAR     75  71  88 SE7       29.97F
DTN SHREVEPORT CLEAR     76  72  87 S8        29.97F

$$

LAZ014-016-010600-
NORTHEAST LOUISIANA

CITY           SKY/WX    TMP DP  RH WIND       PRES   REMARKS
MONROE         PTCLDY    74  71  91 CALM      30.01R
TALLULAH       PTCLDY    78  74  87 S7        30.01S

$$




USA.gov is the U.S. government's official web portal to all federal, state and local government web resources and services.